NOAA 16 DEB

Satellite information

Favourite Embed

Satellite Type and Status

DEBRISIN ORBIT

Key statistics

Satellite NOAA 16 DEB at a glance.

Uptime

8994

Days in orbit

Revolutions

≈ 14.3

Per day

Orbit

SSO

Sun Synchronous Orbit

Inclination

98.6

Latest

Satellite identification and parameters

Extended collection of information and parameters for NOAA 16 DEB.

Object identification

Identified? True

Debris? True

Object name: NOAA 16 DEB

International designator: 2000-055CB

Object number (NORAD): 41144

Object ID (CCSDS): 41144

Country: UNITED STATES OF AMERICA (US)

Current information (Y/N): Y

RCS size: SMALL

Orbital parameters

Period: 100.905 minutes

Inclination: 98.6222 deg

SMA: 7179.635 km

Apoapsis: 821.177 km

Periapsis: 781.822 km

RAAN: 175.2301 deg

Eccentricy: 0.0027407

Argument of periapsis: 239.9719 deg

Mean anomaly: 119.8742 deg

Mean motion: 14.27083082 rev/day

Mean motion (dot): 0.00004679 rev/day2

B* drag term: 0.0019294 1/REarth

Two-line elements (TLE)

Creation date: May 6, 2025, 6:46 a.m.

Reference frame: TEME

Reference center: EARTH

Epoch: May 5, 2025, 9:52 p.m. UTC

TLE line 0: 0 NOAA 16 DEB

TLE line 1: 1 41144U 00055CB 25125.91167504 .00004679 00000-0 19294-2 0 9995

TLE line 2: 2 41144 98.6222 175.2301 0027407 239.9719 119.8742 14.27083082487516

Live tracking on map

Real-time ground track for satellite NOAA 16 DEB.

In-orbit conjunctions

A list of the most updated potential collisions computed for object NOAA 16 DEB.

Target Orbit TCA Probability of collision Miss distance Type
CZ-6A DEB LEO 2025-03-17 03:28:18 0.0001072744 188.0 (m) DEBRIS

Associated space launch

The NOAA K, L and M POES satellites begin the fifth generation of improved environmental monitoring in support of NOAA missions. The instrument payload has significant improvements and additions/deletions. The instrument changes have effected the spacecraft subsystems and data formats.

NOAA 16 DEB was lifted into orbit during the mission ‘Titan II SLV | NOAA 16’, on board a Titan II SLV space rocket.

The launch took place on Sept. 21, 2000, 10:22 a.m. from Space Launch Complex 4W.

For more information about the launch, click the button.

Launch to space Titan II SLV | NOAA 16
Titan II SLV | NOAA 16

Agency: N/A

Status: Launch Successful

Launch date: Sept. 21, 2000, 10:22 a.m. UTC

Rocket: Titan II SLV

Launch pad: Space Launch Complex 4W

Location: Vandenberg SFB, CA, USA

...

Latest news about this satellite

There are no fresh news available about this satellite. Check back as we update our databases every day.


Newsletter sign-up

Weekly statistics, charts and insights to help you stay on top of the space industry.